Back to catalog

BEIDOU 3M24

AliveNavigationMEO
NORAD 44543·PAYLOAD·🇨🇳 China

Launched Sep 22, 2019 from Xichang Satellite Launch Center

Loading…

Next Passes (next 24 hours)

TLE

FreshSource: Space-Track

Epoch: Sep 13, 2026, 03:27 UTC

1 44543U 19061B   26256.14387780  .00000006  00000-0  00000-0 0  9992
2 44543  54.3922 179.7314 0006063   1.1981 163.1718  1.86227599 47438

Track BEIDOU 3M24 in real time with AllMySat

Download on the App Store